Location: Colebrook
(42.0017°N, 73.0973°W)
Time: 21:01:37
(UTC-04:00)

N. Korean satellite - Pass Details

Date: 06 October 2021
Orbit: 450 x 495 km, 97.3° (Epoch: 22 October)

Event Time Altitude Azimuth Distance (km) Brightness Sun altitude
Rises 05:21:22 0° 27° (NNE) 2,567 10.8 -18.2°
Reaches altitude 10° 05:23:50 10° 44° (NE) 1,687 10.1 -17.7°
Maximum altitude 05:26:37 21° 94° (E) 1,170 9.4 -17.2°
Drops below altitude 10° 05:29:23 10° 144° (SE) 1,686 9.6 -16.7°
Sets 05:31:51 0° 161° (SSE) 2,565 10.4 -16.2°
